This is the latest recevied weather packets stored in our database for station/object DO1BDB-12. If no packets are shown the sender has not sent any weather packets the latest 10 day(s).
| Time | Temp. | Humidity | Pressure | Rain* | Wind** | Luminosity | Snow |
|---|---|---|---|---|---|---|---|
| 1777541625 | 21.67° C | 32% | 103.2 hPa | - | - | - | - |
| 1777541559 | 21.67° C | 30% | 103.2 hPa | - | - | - | - |
| 1777541494 | 22.22° C | 30% | 103.2 hPa | - | - | - | - |
| 1777541428 | 22.22° C | 28% | 103.2 hPa | - | - | - | - |
| 1777541362 | 22.78° C | 29% | 103.2 hPa | - | - | - | - |
| 1777541296 | 22.22° C | 28% | 103.2 hPa | - | - | - | - |
| 1777541230 | 22.22° C | 28% | 103.2 hPa | - | - | - | - |
| 1777541164 | 21.67° C | 30% | 103.2 hPa | - | - | - | - |
| 1777541099 | 21.11° C | 31% | 103.2 hPa | - | - | - | - |
| 1777541033 | 22.22° C | 30% | 103.2 hPa | - | - | - | - |
| 1777540967 | 22.78° C | 28% | 103.2 hPa | - | - | - | - |
| 1777540902 | 22.22° C | 28% | 103.2 hPa | - | - | - | - |
| 1777540835 | 21.67° C | 29% | 103.2 hPa | - | - | - | - |
| 1777540769 | 21.67° C | 29% | 103.2 hPa | - | - | - | - |
| 1777540704 | 21.67° C | 29% | 103.2 hPa | - | - | - | - |
| 1777540638 | 21.67° C | 32% | 103.2 hPa | - | - | - | - |
| 1777540572 | 21.67° C | 30% | 103.2 hPa | - | - | - | - |
| 1777540506 | 21.11° C | 31% | 103.2 hPa | - | - | - | - |
| 1777540440 | 22.78° C | 29% | 103.2 hPa | - | - | - | - |
| 1777540374 | 22.78° C | 29% | 103.2 hPa | - | - | - | - |
| 1777540309 | 21.67° C | 28% | 103.2 hPa | - | - | - | - |
| 1777540243 | 22.78° C | 28% | 103.2 hPa | - | - | - | - |
| 1777540177 | 21.67° C | 32% | 103.2 hPa | - | - | - | - |
| 1777540111 | 21.11° C | 28% | 103.2 hPa | - | - | - | - |
| 1777540045 | 22.78° C | 30% | 103.2 hPa | - | - | - | - |
* Rain since midnight (hover to see other rain measurements)
** Current wind speed in m/s (hover to see current wind gust speed)